DateTimeUTC,F1_A11,F1_S11,BsB_S11,BsG_S11,BsR_S11,BbsB_S11,BbsG_S11,BbsR_S11,BaB_A11,BaG_A11,BaR_A11,T_S11,U_S11,P_S11,T1_A11
2020-05-02T00:00:00Z,00040380,21000600,,,,,,,,,,24.7,00.0,0664.7,30.9
2020-05-02T00:01:00Z,00040380,21000600,,,,,,,,,,24.7,00.0,0664.7,30.9
2020-05-02T00:02:00Z,00040380,21000600,,,,,,,,,,24.7,00.0,0664.7,30.9
2020-05-02T00:03:00Z,00040380,61000600,,,,,,,,,,24.7,00.0,0664.7,30.9
2020-05-02T00:04:00Z,00040380,41000600,0012.99,0009.08,0005.29,0001.65,0001.61,0001.26,0000.92,0000.84,0000.65,24.5,00.0,0665.6,30.9
2020-05-02T00:05:00Z,00040380,01000600,0013.66,0009.61,0005.41,0002.45,0001.24,0000.55,0000.95,0000.68,0000.59,24.5,00.0,0665.7,30.9
2020-05-02T00:06:00Z,00040380,01000600,0013.92,0009.12,0004.79,0001.17,0001.08,0001.08,0000.70,0000.79,0000.52,24.5,00.0,0665.7,30.9
2020-05-02T00:07:00Z,00040380,01000600,0013.83,0009.04,0005.04,0001.05,0000.75,0001.06,0001.09,0000.90,0000.47,24.4,00.0,0665.7,30.9
2020-05-02T00:08:00Z,00040380,01000600,0014.10,0008.96,0004.99,0001.83,0001.29,0001.06,0000.81,0000.84,0000.65,24.4,00.0,0665.7,30.9
2020-05-02T00:09:00Z,00040380,01000600,0014.08,0009.52,0005.61,0001.65,0000.96,0000.90,0000.97,0000.78,0000.84,24.5,00.0,0665.7,30.9
2020-05-02T00:10:00Z,00040380,01000600,0013.72,0009.56,0005.73,0001.72,0001.21,0000.91,0001.03,0001.13,0000.56,24.4,00.0,0665.7,30.9
2020-05-02T00:11:00Z,00040380,01000600,0014.11,0009.08,0005.01,0001.18,0001.47,0000.91,0001.05,0000.83,0000.81,24.4,00.0,0665.7,30.9
2020-05-02T00:12:00Z,00040380,01000600,0012.96,0009.13,0004.64,0001.70,0000.88,0000.74,0001.13,0000.72,0000.56,24.5,00.0,0665.7,30.9
2020-05-02T00:13:00Z,00040380,01000600,0013.11,0009.14,0005.25,0001.85,0001.16,0001.12,0000.78,0000.88,0000.57,24.5,00.0,0665.7,30.9
2020-05-02T00:14:00Z,00040380,01000600,0013.95,0009.16,0004.16,0000.91,0001.37,0001.00,0000.57,0000.77,0000.49,24.4,00.0,0665.6,30.9
2020-05-02T00:15:00Z,00040380,01000600,0013.84,0008.98,0004.37,0002.13,0001.15,0000.78,0001.03,0000.79,0000.64,24.4,00.0,0665.6,30.9
2020-05-02T00:16:00Z,00040380,01000600,0014.13,0009.02,0004.66,0001.52,0001.48,0001.11,0000.85,0000.80,0000.35,24.4,00.0,0665.6,30.9
2020-05-02T00:17:00Z,00040380,01000600,0012.99,0008.71,0004.97,0001.94,0001.69,0000.79,0001.02,0000.71,0000.81,24.4,00.0,0665.6,30.9
2020-05-02T00:18:00Z,00040380,01000600,0015.27,0008.86,0004.65,0001.82,0001.12,0000.93,0001.06,0001.08,0000.73,24.4,00.0,0665.6,30.9
2020-05-02T00:19:00Z,00040380,01000600,0013.18,0008.75,0004.95,0002.16,0001.12,0001.06,0000.94,0000.95,0000.87,24.4,00.0,0665.6,30.9
2020-05-02T00:20:00Z,00040380,01000600,0014.07,0008.66,0005.33,0001.33,0001.10,0000.98,0001.08,0001.00,0000.70,24.4,00.0,0665.6,30.9
2020-05-02T00:21:00Z,00040380,01000600,0011.82,0009.06,0004.34,0001.53,0001.33,0000.90,0001.21,0001.25,0000.84,24.4,00.0,0665.6,30.9
2020-05-02T00:22:00Z,00040380,01000600,0013.56,0008.94,0004.89,0002.17,0000.78,0001.10,0000.87,0000.76,0000.58,24.4,00.0,0665.6,30.9
2020-05-02T00:23:00Z,00040380,01000600,0012.97,0008.73,0005.87,0000.54,0001.56,0001.17,0001.11,0000.69,0000.62,24.4,00.0,0665.6,30.9
2020-05-02T00:24:00Z,00040380,01000600,0013.66,0008.89,0005.10,0001.89,0000.88,0000.45,0000.54,0000.71,0000.37,24.4,00.0,0665.6,30.9
2020-05-02T00:25:00Z,00040380,01000600,0013.44,0008.81,0005.00,0002.20,0001.03,0000.97,0000.83,0000.80,0000.62,24.4,00.0,0665.6,30.9
2020-05-02T00:26:00Z,00040380,01000600,0014.29,0009.81,0005.47,0000.59,0001.21,0001.12,0001.01,0000.90,0000.69,24.4,00.0,0665.6,30.9
2020-05-02T00:27:00Z,00040380,01000600,0013.40,0009.40,0005.19,0001.48,0000.96,0001.49,0000.93,0000.76,0000.56,24.4,00.0,0665.6,30.9
2020-05-02T00:28:00Z,00040380,01000600,0012.82,0008.67,0005.15,0001.21,0001.18,0001.09,0001.01,0000.99,0000.70,24.3,00.0,0665.6,30.9
2020-05-02T00:29:00Z,00040380,01000600,0012.26,0008.89,0005.23,0001.56,0001.08,0000.89,0000.92,0000.72,0000.65,24.3,00.0,0665.6,30.9
2020-05-02T00:30:00Z,00040380,01000600,0012.97,0009.10,0005.41,0001.49,0001.37,0001.13,0000.98,0001.06,0000.58,24.3,00.0,0665.6,30.9
2020-05-02T00:31:00Z,00040380,01000600,0013.43,0009.20,0004.93,0001.84,0001.12,0001.25,0000.90,0000.87,0000.71,24.3,00.0,0665.6,30.9
2020-05-02T00:32:00Z,00040380,01000600,0014.44,0008.73,0004.79,0001.86,0001.16,0000.65,0000.87,0000.74,0000.80,24.3,00.0,0665.6,30.9
2020-05-02T00:33:00Z,00040380,01000600,0013.18,0008.84,0005.00,0001.75,0001.52,0000.62,0001.01,0000.91,0000.45,24.3,00.0,0665.6,30.9
2020-05-02T00:34:00Z,00040380,01000600,0012.38,0009.28,0005.02,0002.22,0001.16,0000.63,0000.98,0000.72,0000.53,24.3,00.0,0665.6,30.9
2020-05-02T00:35:00Z,00040380,01000600,0013.33,0008.75,0005.17,0001.10,0001.33,0001.15,0001.05,0000.82,0000.77,24.3,00.0,0665.6,30.9
2020-05-02T00:36:00Z,00040380,01000600,0013.11,0009.47,0006.07,0001.40,0001.52,0001.30,0000.75,0001.06,0000.67,24.3,00.0,0665.6,30.9
2020-05-02T00:37:00Z,00040380,01000600,0013.00,0009.61,0005.26,0001.08,0001.30,0000.95,0001.17,0000.93,0000.69,24.3,00.0,0665.6,30.9
2020-05-02T00:38:00Z,00040380,01000600,0012.10,0009.66,0004.49,0001.44,0000.99,0001.08,0000.81,0000.82,0000.72,24.3,00.0,0665.6,30.9
2020-05-02T00:39:00Z,00040380,01000600,0013.05,0008.88,0004.74,0001.50,0001.57,0001.01,0001.04,0000.97,0000.59,24.3,00.0,0665.6,30.9
2020-05-02T00:40:00Z,00040380,01000600,0014.12,0008.97,0005.52,0002.06,0001.37,0001.13,0000.92,0000.77,0000.60,24.3,00.0,0665.6,30.9
2020-05-02T00:41:00Z,00040380,01000600,0014.15,0009.09,0005.87,0002.17,0001.80,0001.53,0000.99,0001.00,0000.76,24.2,00.0,0665.5,30.9
2020-05-02T00:42:00Z,00040380,01000600,0013.98,0009.34,0005.26,0001.54,0000.94,0000.77,0000.97,0000.85,0000.53,24.2,00.0,0665.6,30.9
2020-05-02T00:43:00Z,00040380,01000600,0013.55,0008.61,0005.16,0002.08,0001.34,0000.83,0000.94,0000.81,0000.85,24.2,00.0,0665.5,30.9
2020-05-02T00:44:00Z,00040380,01000600,0012.16,0009.53,0004.72,0002.14,0001.42,0000.85,0001.06,0000.96,0000.59,24.2,00.0,0665.5,30.9
2020-05-02T00:45:00Z,00040380,01000600,0012.46,0009.69,0005.60,0001.27,0001.09,0001.47,0000.73,0000.60,0000.60,24.2,00.0,0665.5,30.9
2020-05-02T00:46:00Z,00040380,01000600,0012.26,0009.61,0005.23,0001.85,0001.38,0001.09,0000.92,0000.92,0000.53,24.2,00.0,0665.5,30.9
2020-05-02T00:47:00Z,00040380,01000600,0012.70,0008.96,0004.70,0001.84,0001.16,0000.82,0000.95,0000.73,0000.65,24.2,00.0,0665.6,30.9
2020-05-02T00:48:00Z,00040380,01000600,0012.47,0009.28,0004.33,0001.69,0001.57,0000.73,0000.78,0000.70,0000.43,24.2,00.0,0665.5,30.9
2020-05-02T00:49:00Z,00040380,01000600,0013.33,0009.26,0005.12,0001.13,0001.06,0000.90,0000.93,0000.91,0000.64,24.2,00.0,0665.6,30.9
2020-05-02T00:50:00Z,00040380,01000600,0012.85,0009.72,0004.63,0001.06,0001.57,0000.84,0001.05,0000.77,0000.67,24.2,00.0,0665.6,30.9
2020-05-02T00:51:00Z,00040380,01000600,0013.80,0008.70,0005.86,0002.54,0001.22,0001.54,0000.96,0001.04,0000.65,24.2,00.0,0665.5,30.9
2020-05-02T00:52:00Z,00040380,01000600,0013.24,0008.23,0004.91,0002.23,0001.39,0001.17,0001.02,0000.88,0000.70,24.2,00.0,0665.5,30.9
2020-05-02T00:53:00Z,00040380,01000600,0011.75,0008.58,0004.65,0002.33,0000.86,0001.25,0000.95,0001.02,0000.79,24.2,00.0,0665.5,30.9
2020-05-02T00:54:00Z,00040380,01000600,0012.95,0008.98,0005.41,0002.33,0001.12,0001.22,0000.81,0000.65,0000.66,24.2,00.0,0665.5,30.9
2020-05-02T00:55:00Z,00040380,01000600,0012.08,0009.37,0004.71,0001.71,0001.67,0000.75,0001.05,0000.93,0000.49,24.2,00.0,0665.5,30.9
2020-05-02T00:56:00Z,00040380,01000600,0012.68,0008.94,0004.59,0000.92,0001.08,0001.17,0000.86,0000.84,0000.55,24.2,00.0,0665.5,30.9
2020-05-02T00:57:00Z,00040380,41000600,,,,,,,,,,24.3,00.0,0665.6,30.9
2020-05-02T00:58:00Z,00040380,61000600,,,,,,,,,,24.4,00.0,0664.5,30.9
2020-05-02T00:59:00Z,00040380,21000600,,,,,,,,,,24.5,00.0,0664.5,30.9
2020-05-02T01:00:00Z,00040380,21000600,,,,,,,,,,24.5,00.0,0664.5,30.9
2020-05-02T01:01:00Z,00040380,21000600,,,,,,,,,,24.5,00.0,0664.5,30.9
2020-05-02T01:02:00Z,00040380,21000600,,,,,,,,,,24.5,00.0,0664.5,30.9
2020-05-02T01:03:00Z,00040380,61000600,,,,,,,,,,24.5,00.0,0664.5,30.9
2020-05-02T01:04:00Z,00040380,41000600,0013.54,0008.58,0005.73,0000.71,0001.20,0000.95,0000.76,0000.83,0000.46,24.3,00.0,0665.4,30.9
2020-05-02T01:05:00Z,00040380,01000600,0012.10,0008.12,0005.11,0001.63,0000.96,0000.57,0000.96,0000.71,0000.74,24.3,00.0,0665.5,30.9
2020-05-02T01:06:00Z,00040380,01000600,0012.45,0009.10,0005.24,0001.72,0001.16,0000.48,0000.79,0000.85,0000.50,24.3,00.0,0665.5,30.9
2020-05-02T01:07:00Z,00040380,01000600,0012.53,0008.46,0004.73,0001.29,0000.95,0000.38,0000.78,0000.63,0000.59,24.3,00.0,0665.5,30.9
2020-05-02T01:08:00Z,00040380,01000600,0013.00,0007.97,0005.39,0001.50,0001.05,0000.85,0001.12,0000.90,0000.83,24.3,00.0,0665.5,30.9
2020-05-02T01:09:00Z,00040380,01000600,0012.43,0008.48,0004.56,0002.33,0000.71,0000.99,0001.03,0001.03,0000.62,24.3,00.0,0665.4,30.9
2020-05-02T01:10:00Z,00040380,01000600,0012.92,0008.71,0005.37,0002.30,0001.42,0001.33,0000.82,0000.81,0000.47,24.3,00.0,0665.5,30.9
2020-05-02T01:11:00Z,00040380,01000600,0013.02,0008.54,0005.39,0001.61,0001.02,0000.75,0001.06,0001.03,0000.90,24.3,00.0,0665.4,30.9
2020-05-02T01:12:00Z,00040380,01000600,0011.52,0009.41,0004.93,0002.07,0001.23,0000.35,0000.75,0000.65,0000.35,24.3,00.0,0665.4,30.9
2020-05-02T01:13:00Z,00040380,01000600,0013.58,0008.18,0005.13,0002.31,0000.62,0000.89,0000.92,0000.58,0000.59,24.3,00.0,0665.4,30.9
2020-05-02T01:14:00Z,00040380,01000600,0012.15,0008.33,0005.28,0002.34,0001.39,0000.77,0000.80,0000.93,0000.58,24.3,00.0,0665.4,30.9
2020-05-02T01:15:00Z,00040380,01000600,0011.70,0008.89,0005.40,0001.75,0000.61,0001.10,0000.98,0000.77,0000.49,24.3,00.0,0665.4,30.9
2020-05-02T01:16:00Z,00040380,01000600,0012.94,0008.67,0005.22,0001.03,0000.99,0000.76,0000.99,0000.86,0000.57,24.3,00.0,0665.4,30.9
2020-05-02T01:17:00Z,00040380,01000600,0013.84,0008.20,0005.15,0001.63,0000.75,0000.76,0000.75,0000.84,0000.79,24.3,00.0,0665.4,30.9
2020-05-02T01:18:00Z,00040380,01000600,0013.79,0008.49,0004.56,0001.69,0001.17,0000.56,0000.99,0000.86,0000.68,24.3,00.0,0665.4,30.9
2020-05-02T01:19:00Z,00040380,01000600,0012.89,0008.69,0005.03,0002.07,0001.03,0000.56,0000.80,0000.68,0000.52,24.3,00.0,0665.4,30.9
2020-05-02T01:20:00Z,00040380,01000600,0012.13,0008.63,0005.14,0001.41,0001.16,0000.63,0001.27,0001.07,0000.76,24.3,00.0,0665.3,30.9
2020-05-02T01:21:00Z,00040380,01000600,0012.91,0008.72,0005.38,0001.14,0000.88,0001.01,0000.81,0000.87,0000.62,24.3,00.0,0665.4,30.9
2020-05-02T01:22:00Z,00040380,01000600,0011.75,0009.14,0005.57,0001.67,0001.30,0001.49,0000.91,0000.98,0000.50,24.3,00.0,0665.4,30.9
2020-05-02T01:23:00Z,00040380,01000600,0012.26,0008.48,0005.03,0001.88,0001.01,0000.60,0000.80,0000.52,0000.43,24.3,00.0,0665.4,30.9
2020-05-02T01:24:00Z,00040380,01000600,0010.92,0008.27,0005.58,0001.32,0001.24,0000.50,0000.80,0000.63,0000.67,24.3,00.0,0665.4,30.9
2020-05-02T01:25:00Z,00040380,01000600,0013.38,0008.80,0004.59,0001.69,0000.94,0000.89,0000.88,0000.75,0000.64,24.3,00.0,0665.4,30.9
2020-05-02T01:26:00Z,00040380,01000600,0013.26,0007.92,0005.50,0001.61,0001.12,0000.96,0000.75,0001.04,0000.56,24.3,00.0,0665.4,30.9
2020-05-02T01:27:00Z,00040380,01000600,0012.40,0008.43,0005.33,0001.59,0001.02,0001.13,0000.94,0000.72,0000.53,24.3,00.0,0665.4,30.9
2020-05-02T01:28:00Z,00040380,01000600,0011.31,0008.08,0005.04,0001.81,0001.53,0000.88,0000.84,0000.77,0000.62,24.3,00.0,0665.4,30.9
2020-05-02T01:29:00Z,00040380,01000600,0011.89,0008.68,0005.32,0002.32,0001.02,0000.42,0000.87,0000.86,0000.67,24.3,00.0,0665.4,30.9
2020-05-02T01:30:00Z,00040380,01000600,0011.01,0008.51,0004.88,0001.69,0000.92,0000.67,0001.00,0000.71,0000.50,24.3,00.0,0665.4,30.9
2020-05-02T01:31:00Z,00040380,01000600,0013.07,0009.58,0005.48,0001.86,0000.99,0000.97,0000.96,0000.84,0000.62,24.3,00.0,0665.4,30.9
2020-05-02T01:32:00Z,00040380,01000600,0011.76,0008.89,0005.25,0001.46,0001.03,0001.12,0000.89,0000.89,0000.61,24.3,00.0,0665.4,30.9
2020-05-02T01:33:00Z,00040380,01000600,0013.85,0008.92,0005.13,0002.10,0000.82,0001.32,0001.10,0000.89,0000.75,24.3,00.0,0665.3,30.9
2020-05-02T01:34:00Z,00040380,01000600,0012.92,0008.40,0006.19,0002.26,0001.11,0001.15,0000.65,0000.70,0000.43,24.3,00.0,0665.3,30.9
2020-05-02T01:35:00Z,00040380,01000600,0011.70,0008.89,0004.80,0001.75,0000.79,0000.86,0000.88,0000.81,0000.36,24.2,00.0,0665.3,30.9
2020-05-02T01:36:00Z,00040380,01000600,0012.30,0008.49,0005.47,0002.24,0000.69,0001.22,0000.85,0000.74,0000.80,24.2,00.0,0665.3,30.9
2020-05-02T01:37:00Z,00040380,01000600,0013.66,0008.90,0005.16,0001.07,0001.15,0001.07,0001.11,0001.01,0000.56,24.2,00.0,0665.3,30.9
2020-05-02T01:38:00Z,00040380,01000600,0012.46,0008.89,0005.15,0000.95,0000.92,0000.81,0000.76,0000.76,0000.67,24.2,00.0,0665.3,30.8
2020-05-02T01:39:00Z,00040380,01000600,0013.00,0008.86,0005.40,0001.71,0000.90,0000.82,0001.19,0001.10,0000.71,24.2,00.0,0665.3,30.9
2020-05-02T01:40:00Z,00040380,01000600,0011.63,0009.05,0005.32,0002.04,0001.57,0000.91,0000.86,0000.79,0000.74,24.2,00.0,0665.3,30.9
2020-05-02T01:41:00Z,00040380,01000600,0013.33,0008.64,0006.16,0001.76,0000.79,0000.65,0001.02,0000.91,0000.58,24.2,00.0,0665.3,30.9
2020-05-02T01:42:00Z,00040380,01000600,0012.05,0008.66,0005.95,0001.92,0001.06,0000.91,0001.00,0000.69,0000.77,24.2,00.0,0665.3,30.9
2020-05-02T01:43:00Z,00040380,01000600,0012.40,0008.41,0005.00,0001.92,0000.71,0000.67,0001.11,0001.09,0000.57,24.2,00.0,0665.3,30.9
2020-05-02T01:44:00Z,00040380,01000600,0012.01,0008.56,0004.94,0001.07,0000.99,0001.12,0000.92,0000.93,0000.69,24.2,00.0,0665.2,30.9
2020-05-02T01:45:00Z,00040380,01000600,0011.43,0008.69,0005.29,0000.90,0001.34,0001.05,0000.93,0000.71,0000.69,24.2,00.0,0665.2,30.9
2020-05-02T01:46:00Z,00040380,01000600,0013.41,0008.63,0005.09,0001.29,0001.19,0001.19,0001.00,0001.21,0000.61,24.2,00.0,0665.2,30.9
2020-05-02T01:47:00Z,00040380,01000600,0013.64,0008.89,0005.43,0001.59,0001.22,0000.93,0000.74,0000.41,0000.43,24.2,00.0,0665.2,30.9
2020-05-02T01:48:00Z,00040380,01000600,0012.81,0008.50,0005.79,0001.73,0000.99,0001.12,0000.87,0000.87,0000.58,24.2,00.0,0665.2,30.9
2020-05-02T01:49:00Z,00040380,01000600,0012.18,0008.15,0005.46,0001.23,0001.59,0000.59,0000.85,0000.56,0000.51,24.2,00.0,0665.2,30.9
2020-05-02T01:50:00Z,00040380,01000600,0012.19,0008.46,0005.10,0001.41,0001.13,0000.56,0000.83,0000.87,0000.71,24.1,00.0,0665.2,30.9
2020-05-02T01:51:00Z,00040380,01000600,0012.63,0008.86,0005.01,0001.63,0001.06,0000.84,0000.96,0001.02,0000.49,24.2,00.0,0665.2,30.9
2020-05-02T01:52:00Z,00040380,01000600,0011.98,0008.02,0005.69,0001.14,0001.08,0001.04,0000.97,0000.83,0000.67,24.1,00.0,0665.2,30.9
2020-05-02T01:53:00Z,00040380,01000600,0012.01,0008.21,0005.86,0001.83,0000.61,0001.10,0000.93,0000.81,0000.69,24.1,00.0,0665.2,30.8
2020-05-02T01:54:00Z,00040380,01000600,0011.88,0008.51,0004.77,0002.36,0001.43,0001.07,0000.73,0000.69,0000.51,24.2,00.0,0665.2,30.9
2020-05-02T01:55:00Z,00040380,01000600,0011.78,0008.36,0004.95,0002.06,0001.35,0000.61,0001.05,0000.86,0000.59,24.1,00.0,0665.2,30.9
2020-05-02T01:56:00Z,00040380,01000600,0014.41,0008.67,0004.96,0001.34,0000.84,0000.72,0000.81,0000.68,0000.55,24.1,00.0,0665.2,30.9
2020-05-02T01:57:00Z,00040380,41000600,,,,,,,,,,24.2,00.0,0665.2,30.9
2020-05-02T01:58:00Z,00040380,61000600,,,,,,,,,,24.3,00.0,0664.2,30.9
2020-05-02T01:59:00Z,00040380,21000600,,,,,,,,,,24.4,00.0,0664.2,30.9
2020-05-02T02:00:00Z,00040380,21000600,,,,,,,,,,24.4,00.0,0664.2,30.9
2020-05-02T02:01:00Z,00040380,21000600,,,,,,,,,,24.4,00.0,0664.2,30.9
2020-05-02T02:02:00Z,00040380,21000600,,,,,,,,,,24.4,00.0,0664.2,30.9
2020-05-02T02:03:00Z,00040380,61000600,,,,,,,,,,24.4,00.0,0664.2,30.9
2020-05-02T02:04:00Z,00040380,41000600,0013.22,0008.60,0005.10,0000.74,0001.34,0000.91,0000.72,0000.71,0000.57,24.2,00.0,0665.1,30.9
2020-05-02T02:05:00Z,00040380,01000600,0013.25,0008.80,0005.56,0001.28,0001.05,0001.01,0000.98,0000.88,0000.78,24.1,00.0,0665.2,30.9
2020-05-02T02:06:00Z,00040380,01000600,0012.32,0009.10,0004.86,0001.40,0000.84,0000.81,0000.89,0000.84,0000.36,24.2,00.0,0665.2,30.9
2020-05-02T02:07:00Z,00040380,01000600,0012.67,0008.60,0005.52,0000.80,0001.16,0000.61,0000.92,0000.64,0000.69,24.2,00.0,0665.2,30.9
2020-05-02T02:08:00Z,00040380,01000600,0012.95,0008.37,0005.71,0001.19,0001.30,0001.52,0000.68,0000.73,0000.74,24.1,00.0,0665.2,30.9
2020-05-02T02:09:00Z,00040380,01000600,0012.56,0008.61,0005.31,0002.04,0001.36,0000.74,0000.95,0000.92,0000.46,24.2,00.0,0665.2,30.9
2020-05-02T02:10:00Z,00040380,01000600,0013.09,0008.33,0005.65,0000.76,0001.46,0001.45,0001.20,0001.06,0000.68,24.2,00.0,0665.2,30.9
2020-05-02T02:11:00Z,00040380,01000600,0013.44,0008.89,0005.00,0001.56,0001.09,0001.03,0000.82,0000.68,0000.63,24.1,00.0,0665.2,30.9
2020-05-02T02:12:00Z,00040380,01000600,0012.58,0008.71,0005.10,0001.39,0001.03,0000.70,0000.78,0000.88,0000.54,24.1,00.0,0665.2,30.9
2020-05-02T02:13:00Z,00040380,01000600,0012.96,0008.76,0005.08,0001.48,0001.11,0000.81,0000.95,0000.87,0000.75,24.1,00.0,0665.2,30.9
2020-05-02T02:14:00Z,00040380,01000600,0013.91,0008.49,0005.32,0000.72,0001.47,0001.35,0001.00,0000.80,0000.42,24.1,00.0,0665.2,30.9
2020-05-02T02:15:00Z,00040380,01000600,0013.30,0007.89,0005.42,0001.96,0001.42,0000.70,0000.87,0000.89,0000.76,24.1,00.0,0665.2,30.9
2020-05-02T02:16:00Z,00040380,01000600,0012.38,0007.80,0005.23,0001.34,0001.02,0000.41,0000.95,0000.82,0000.58,24.1,00.0,0665.2,30.9
2020-05-02T02:17:00Z,00040380,01000600,0012.49,0008.59,0005.25,0002.89,0001.30,0000.82,0000.88,0000.78,0000.56,24.1,00.0,0665.2,30.9
2020-05-02T02:18:00Z,00040380,01000600,0011.63,0009.14,0005.78,0001.53,0001.28,0001.04,0001.15,0000.87,0000.58,24.1,00.0,0665.2,30.8
2020-05-02T02:19:00Z,00040380,01000600,0012.81,0008.27,0005.00,0000.66,0001.31,0000.89,0000.73,0000.90,0000.90,24.1,00.0,0665.2,30.9
2020-05-02T02:20:00Z,00040380,01000600,0011.90,0008.64,0005.00,0000.93,0001.49,0000.89,0000.86,0000.71,0000.41,24.1,00.0,0665.2,30.9
2020-05-02T02:21:00Z,00040380,01000600,0013.97,0008.54,0005.15,0001.21,0001.35,0001.19,0001.05,0001.12,0000.66,24.1,00.0,0665.1,30.9
2020-05-02T02:22:00Z,00040380,01000600,0011.24,0008.34,0004.92,0000.48,0001.52,0000.50,0000.93,0000.70,0000.72,24.0,00.0,0665.1,30.9
2020-05-02T02:23:00Z,00040380,01000600,0014.33,0009.47,0005.38,0000.95,0001.39,0001.13,0000.94,0000.88,0000.58,24.0,00.0,0665.1,30.9
2020-05-02T02:24:00Z,00040380,01000600,0013.22,0008.09,0005.33,0000.48,0001.30,0001.46,0000.75,0000.70,0000.50,24.0,00.0,0665.1,30.9
2020-05-02T02:25:00Z,00040380,01000600,0012.02,0008.33,0004.86,0001.62,0001.74,0001.29,0001.09,0000.87,0000.65,24.0,00.0,0665.1,30.9
2020-05-02T02:26:00Z,00040380,01000600,0014.02,0008.10,0004.55,0000.63,0001.37,-000.04,0000.75,0001.01,0000.54,24.0,00.0,0665.1,30.9
2020-05-02T02:27:00Z,00040380,01000600,0013.28,0008.89,0005.79,0001.23,0001.32,0001.21,0001.01,0000.72,0000.77,24.0,00.0,0665.1,30.9
2020-05-02T02:28:00Z,00040380,01000600,0013.17,0008.87,0005.33,0000.61,0001.24,0000.50,0000.75,0000.73,0000.42,24.0,00.0,0665.1,30.9
2020-05-02T02:29:00Z,00040380,01000600,0012.68,0008.42,0005.60,0002.12,0000.94,0001.00,0000.97,0000.97,0000.62,24.0,00.0,0665.1,30.8
2020-05-02T02:30:00Z,00040380,01000600,0013.66,0008.19,0005.02,0001.61,0001.09,0000.46,0000.83,0000.68,0000.48,24.0,00.0,0665.1,30.8
2020-05-02T02:31:00Z,00040380,01000600,0012.75,0008.78,0005.52,0001.12,0001.20,0000.59,0000.95,0000.86,0000.83,24.0,00.0,0665.1,30.9
2020-05-02T02:32:00Z,00040380,01000600,0012.51,0008.86,0005.41,0002.02,0001.86,0001.24,0000.84,0000.87,0000.57,24.0,00.0,0665.1,30.9
2020-05-02T02:33:00Z,00040380,01000600,0013.45,0008.10,0005.61,0000.77,0001.28,0000.80,0000.94,0000.71,0000.58,24.0,00.0,0665.1,30.9
2020-05-02T02:34:00Z,00040380,01000600,0013.28,0008.05,0004.99,0001.10,0001.60,0000.89,0000.93,0001.04,0000.74,24.0,00.0,0665.1,30.9
2020-05-02T02:35:00Z,00040380,01000600,0014.35,0008.44,0005.57,0001.43,0001.54,0001.22,0001.03,0000.97,0000.55,23.9,00.0,0665.1,30.8
2020-05-02T02:36:00Z,00040380,01000600,0012.65,0008.70,0004.89,0001.41,0001.22,0001.14,0000.94,0000.85,0000.76,23.9,00.0,0665.1,30.8
2020-05-02T02:37:00Z,00040380,01000600,0013.11,0008.63,0005.26,0001.27,0001.42,0000.63,0000.90,0000.94,0000.72,23.9,00.0,0665.1,30.8
2020-05-02T02:38:00Z,00040380,01000600,0013.37,0008.40,0005.42,0001.94,0001.34,0001.05,0001.01,0000.73,0000.52,23.9,00.0,0665.1,30.8
2020-05-02T02:39:00Z,00040380,01000600,0013.08,0008.81,0004.87,0000.63,0001.26,0000.70,0000.94,0000.88,0000.72,23.9,00.0,0665.1,30.8
2020-05-02T02:40:00Z,00040380,01000600,0012.90,0008.31,0005.07,0001.88,0001.25,0001.15,0001.01,0000.72,0000.75,23.9,00.0,0665.1,30.8
2020-05-02T02:41:00Z,00040380,01000600,0012.61,0009.58,0005.53,0001.82,0001.00,0000.86,0000.80,0000.89,0000.43,23.9,00.0,0665.1,30.9
2020-05-02T02:42:00Z,00040380,01000600,0013.93,0008.76,0005.38,0001.69,0001.36,0001.16,0000.91,0000.79,0000.58,23.9,00.0,0665.1,30.9
2020-05-02T02:43:00Z,00040380,01000600,0012.97,0008.75,0004.75,0001.40,0000.95,0000.94,0000.91,0000.81,0000.68,23.9,00.0,0665.1,30.8
2020-05-02T02:44:00Z,00040380,01000600,0012.27,0008.52,0005.51,0001.51,0001.27,0000.95,0000.98,0000.90,0000.54,23.9,00.0,0665.1,30.9
2020-05-02T02:45:00Z,00040380,01000600,0013.94,0008.77,0005.18,0001.80,0001.63,0001.29,0000.87,0000.81,0000.57,23.9,00.0,0665.1,30.9
2020-05-02T02:46:00Z,00040380,01000600,0012.67,0008.58,0005.43,0001.83,0001.49,0001.06,0001.02,0000.97,0000.82,23.9,00.0,0665.1,30.9
2020-05-02T02:47:00Z,00040380,01000600,0012.50,0008.55,0005.12,0001.11,0001.21,0000.93,0000.86,0000.74,0000.50,23.9,00.0,0665.1,30.9
2020-05-02T02:48:00Z,00040380,01000600,0012.76,0008.49,0005.73,0001.67,0001.48,0000.65,0000.80,0000.75,0000.42,23.9,00.0,0665.1,30.9
2020-05-02T02:49:00Z,00040380,01000600,0013.16,0008.83,0004.95,0002.00,0001.36,0000.48,0000.96,0000.94,0000.83,23.9,00.0,0665.1,30.9
2020-05-02T02:50:00Z,00040380,01000600,0012.12,0008.32,0004.93,0000.95,0001.13,0000.91,0001.01,0000.97,0000.63,23.9,00.0,0665.1,30.9
2020-05-02T02:51:00Z,00040380,01000600,0012.80,0008.24,0005.05,0001.26,0001.72,0000.80,0001.07,0000.91,0000.83,23.9,00.0,0665.1,30.8
2020-05-02T02:52:00Z,00040380,01000600,0011.35,0008.27,0005.62,0001.45,0001.14,0000.81,0000.88,0000.76,0000.46,23.9,00.0,0665.1,30.9
2020-05-02T02:53:00Z,00040380,01000600,0012.00,0008.62,0004.90,0002.06,0000.97,0001.37,0000.94,0000.76,0000.77,23.9,00.0,0665.1,30.9
2020-05-02T02:54:00Z,00040380,01000600,0012.41,0008.25,0004.95,0000.90,0001.07,0000.58,0000.85,0000.83,0000.58,23.9,00.0,0665.1,30.9
2020-05-02T02:55:00Z,00040380,01000600,0013.09,0007.82,0005.05,0000.57,0001.51,0000.74,0000.89,0000.82,0000.40,23.9,00.0,0665.1,30.9
2020-05-02T02:56:00Z,00040380,01000600,0012.97,0008.13,0004.82,0001.09,0001.21,0000.82,0001.00,0000.95,0000.73,23.9,00.0,0665.1,30.9
2020-05-02T02:57:00Z,00040380,41000600,,,,,,,,,,23.9,00.0,0665.0,30.9
2020-05-02T02:58:00Z,00040380,61000600,,,,,,,,,,24.1,00.0,0664.0,30.9
2020-05-02T02:59:00Z,00040380,21000600,,,,,,,,,,24.2,00.0,0664.0,30.9
2020-05-02T03:00:00Z,00040380,21000600,,,,,,,,,,24.2,00.0,0664.0,30.9
2020-05-02T03:01:00Z,00040380,21000600,,,,,,,,,,24.2,00.0,0664.0,30.9
2020-05-02T03:02:00Z,00040380,21000600,,,,,,,,,,24.2,00.0,0664.0,30.9
2020-05-02T03:03:00Z,00040380,61000600,,,,,,,,,,24.2,00.0,0664.0,30.9
2020-05-02T03:04:00Z,00040380,41000600,0013.37,0008.04,0005.18,0001.91,0000.78,0000.20,0000.79,0000.89,0000.60,24.0,00.0,0665.0,30.9
2020-05-02T03:05:00Z,00040380,01000600,0012.52,0009.09,0005.39,0002.04,0001.36,0000.64,0000.95,0000.72,0000.50,24.0,00.0,0665.1,30.9
2020-05-02T03:06:00Z,00040380,01000600,0012.75,0008.35,0005.06,0001.85,0000.90,0000.68,0000.83,0000.97,0000.63,24.0,00.0,0665.0,30.9
2020-05-02T03:07:00Z,00040380,01000600,0012.03,0007.37,0005.12,0002.12,0001.08,0000.71,0000.94,0000.78,0000.55,24.0,00.0,0665.1,30.9
2020-05-02T03:08:00Z,00040380,01000600,0012.86,0008.41,0005.02,0001.79,0000.75,0001.40,0000.91,0000.82,0000.55,23.9,00.0,0665.1,30.9
2020-05-02T03:09:00Z,00040380,01000600,0012.30,0008.53,0004.83,0001.64,0000.92,0000.76,0000.98,0000.79,0000.68,24.0,00.0,0665.1,30.9
2020-05-02T03:10:00Z,00040380,01000600,0012.99,0008.01,0004.98,0002.41,0001.04,0001.46,0000.81,0001.05,0000.56,23.9,00.0,0665.1,30.9